Location: New Frontier Mobile Home Park
(32.8448°N, 116.9675°W)
Time: 20:20:17
(UTC+00:00)

Cosmos 2233 Rocket - Pass Details

Date: 14 July 2020
Orbit: 954 x 990 km, 82.9° (Epoch: 13 August)

Event Time Altitude Azimuth Distance (km) Brightness Sun altitude
Exits shadow 09:38:04 50° 115° (ESE) 1,211 4.4 -30.2°
Maximum altitude 09:38:46 53° 91° (E) 1,178 4.5 -30.1°
Drops below altitude 10° 09:44:47 10° 17° (NNE) 2,725 7.2 -29.5°
Sets 09:47:22 0° 12° (NNE) 3,681 8.1 -29.2°
